DW7721 Weather Reports


Display with metric or nautical units.
time (UTC)temp
F
wind
direction
speed
MPH
gust
MPH
rain 1hr
in
rain 24hr
in
rain mn
in
humidity
%
barometer
mb
20260506164603 77 22 0.0 5.0 0.00 0.00 0.00 83 1009.6
20260506163003 77 35 1.0 6.0 0.00 0.00 0.00 84 1009.6
20260506161612 76 22 0.0 4.0 0.00 0.00 0.00 85 1009.7
20260506160008 76 17 1.0 3.0 0.00 0.00 0.00 85 1009.6
20260506154503 76 25 0.0 2.0 0.00 0.00 0.00 86 1009.3
20260506153104 75 357 0.0 2.0 0.00 0.00 0.00 87 1009.1
20260506151505 75 27 0.0 1.0 0.00 0.00 0.00 87 1008.8
20260506150008 75 18 0.0 0.0 0.00 0.00 0.00 86 1008.7
20260506144516 75 7 0.0 1.0 0.00 0.00 0.00 85 1008.8
20260506143004 75 137 0.0 1.0 0.00 0.00 0.00 85 1008.6
20260506141504 75 183 0.0 0.0 0.00 0.00 0.00 86 1008.2
20260506140003 75 209 0.0 2.0 0.00 0.00 0.00 86 1008.0
20260506134502 75 168 0.0 1.0 0.00 0.00 0.00 86 1007.6
20260506133001 75 207 0.0 2.0 0.00 0.00 0.00 86 1007.4
20260506131602 75 214 1.0 4.0 0.00 0.00 0.00 86 1007.3
20260506130005 74 99 0.0 2.0 0.00 0.00 0.00 87 1007.2
20260506124505 74 240 0.0 0.0 0.00 0.00 0.00 87 1007.3
20260506123002 74 224 0.0 1.0 0.00 0.00 0.00 87 1007.3
20260506121604 74 186 0.0 0.0 0.00 0.00 0.00 86 1007.3
20260506120103 74 201 0.0 1.0 0.00 0.00 0.00 86 1007.1
20260506114550 74 229 0.0 2.0 0.00 0.00 0.00 86 1007.1
20260506113052 74 229 0.0 2.0 0.00 0.00 0.00 86 1007.1
20260506111547 74 225 0.0 2.0 0.00 0.00 0.00 86 1007.1
20260506110048 74 225 0.0 1.0 0.00 0.00 0.00 86 1007.2
20260506104556 75 197 0.0 2.0 0.00 0.00 0.00 86 1007.0
20260506103105 75 193 0.0 1.0 0.00 0.00 0.00 86 1007.0
20260506101557 75 212 0.0 2.0 0.00 0.00 0.00 85 1007.0
20260506100108 75 199 0.0 3.0 0.00 0.00 0.00 85 1006.9
20260506094605 75 210 0.0 3.0 0.00 0.00 0.00 85 1006.8
20260506093057 75 120 1.0 4.0 0.00 0.00 0.00 85 1006.7
20260506091505 75 143 0.0 3.0 0.00 0.00 0.00 85 1006.7
20260506090039 75 189 0.0 0.0 0.00 0.00 0.00 85 1006.8
20260506084551 75 176 0.0 4.0 0.00 0.00 0.00 85 1006.8
20260506083053 75 173 0.0 3.0 0.00 0.00 0.00 85 1006.8
20260506081550 75 211 0.0 3.0 0.00 0.00 0.00 84 1006.7
20260506073003 75 135 1.0 5.0 0.00 0.00 0.00 84 1007.2
20260506071501 75 352 0.0 8.0 0.00 0.00 0.00 84 1007.3
20260506061602 76 141 1.0 10.0 0.00 0.00 0.00 84 1007.4
20260506044555 76 210 1.0 6.0 0.00 0.00 0.00 84 1007.4
20260506043057 76 315 1.0 4.0 0.00 0.00 0.00 84 1007.4
20260506041553 76 229 0.0 2.0 0.00 0.00 0.00 84 1007.3
20260506040003 76 114 0.0 2.0 0.00 0.00 0.00 83 1007.1
20260506034511 77 131 0.0 5.0 0.00 0.00 0.00 83 1007.0
20260506033010 77 219 1.0 7.0 0.00 0.00 0.00 83 1006.6
20260506031516 77 193 0.0 6.0 0.00 0.00 0.00 82 1006.5
20260506030008 78 207 0.0 4.0 0.00 0.00 0.00 81 1006.2
20260506024509 78 170 0.0 8.0 0.00 0.00 0.00 80 1005.9
20260506023006 79 245 1.0 7.0 0.00 0.00 0.00 79 1005.8
20260506021505 80 134 0.0 4.0 0.00 0.00 0.00 78 1005.8
20260506020004 81 92 1.0 4.0 0.00 0.00 0.00 77 1005.5
20260506014504 81 135 0.0 3.0 0.00 0.00 0.00 75 1005.2
20260506013003 81 104 0.0 1.0 0.00 0.00 0.00 74 1005.0
20260506011510 82 95 0.0 1.0 0.00 0.00 0.00 73 1004.8
20260506010013 82 221 0.0 1.0 0.00 0.00 0.00 72 1004.6
20260506004506 83 226 0.0 2.0 0.00 0.00 0.00 72 1004.5
20260506003004 83 156 0.0 3.0 0.00 0.00 0.00 71 1004.4
20260506001502 84 224 0.0 3.0 0.00 0.00 0.00 71 1004.4
20260505234528 85 208 0.0 4.0 0.00 0.00 0.00 69 1004.1
20260505233046 85 146 0.0 1.0 0.00 0.00 0.00 69 1004.0
20260505231550 85 115 1.0 4.0 0.00 0.00 0.00 68 1004.0
20260505230055 86 176 0.0 3.0 0.00 0.00 0.00 68 1003.9
20260505224547 86 77 1.0 5.0 0.00 0.00 0.00 67 1004.0
20260505223048 85 223 2.0 5.0 0.00 0.00 0.00 67 1004.1
20260505221546 85 207 1.0 5.0 0.00 0.00 0.00 66 1004.2
20260505220044 86 213 1.0 4.0 0.00 0.00 0.00 65 1004.4
20260505214549 86 165 0.0 4.0 0.00 0.00 0.00 66 1004.5
20260505213042 85 195 2.0 6.0 0.00 0.00 0.00 65 1004.7
20260505211539 85 233 0.0 5.0 0.00 0.00 0.00 67 1005.0
20260505210047 86 224 0.0 7.0 0.00 0.00 0.00 66 1005.2
20260505204502 85 112 0.0 5.0 0.00 0.00 0.00 68 1005.5
20260505203002 85 207 1.0 6.0 0.00 0.00 0.00 67 1005.8
20260505201502 85 167 1.0 6.0 0.00 0.00 0.00 67 1005.9
20260505200058 86 143 0.0 5.0 0.00 0.00 0.00 67 1006.0
20260505194555 85 134 1.0 6.0 0.00 0.00 0.00 69 1006.2
20260505193054 84 171 0.0 5.0 0.00 0.00 0.00 69 1006.4
20260505191603 82 210 2.0 4.0 0.00 0.00 0.00 70 1006.6
20260505190004 81 236 0.0 4.0 0.00 0.00 0.00 72 1007.0
20260505184502 81 170 0.0 3.0 0.00 0.00 0.00 73 1007.1
20260505183141 80 219 0.0 3.0 0.00 0.00 0.00 73 1007.3
20260505181601 80 143 1.0 4.0 0.00 0.00 0.00 73 1007.4
20260505180059 80 304 0.0 3.0 0.00 0.00 0.00 74 1007.5
20260505174557 79 214 1.0 4.0 0.00 0.00 0.00 75 1007.6
20260505173013 78 229 0.0 5.0 0.00 0.00 0.00 76 1007.8
20260505171544 78 136 0.0 3.0 0.00 0.00 0.00 78 1007.8
20260505170052 77 151 1.0 4.0 0.00 0.00 0.00 79 1007.7